AAL382 KLAX-KBOS

Flight info

Callsign AAL382
Flight time N/A
Altitude 35000
Route DOTSS2 CLEEE PKE HIDAT KA27O ZUN J244 FTI KA36Y MMB J26 IRK J96 PIA WHETT MAYZE CXR SLT LAAYK HUO MERIT ROBUC3
Aircraft A321/M-SDE3FGHIRWY/LB1

Departure

Time 2026-04-25 16:07
Airport Los Angeles International Airport (KLAX)

Arrival

Time N/A
Airport Boston Logan International Airport (KBOS)
Time Latitude Longitude Altitude Speed Heading
2026-04-25 15:04 33.94025 -118.40492 96 ft 0 kts 83°
2026-04-25 15:46 33.94023 -118.40512 97 ft 4 kts 92°
2026-04-25 15:46 33.94029 -118.40541 95 ft 4 kts 133°
2026-04-25 15:46 33.94049 -118.40556 95 ft 3 kts 171°
2026-04-25 15:47 33.94057 -118.40558 96 ft 0 kts 173°
2026-04-25 15:58 33.94038 -118.40555 96 ft 4 kts 173°
2026-04-25 15:58 33.94012 -118.40551 98 ft 4 kts 173°
2026-04-25 15:58 33.93989 -118.40547 97 ft 3 kts 173°
2026-04-25 15:59 33.93973 -118.40545 97 ft 2 kts 173°
2026-04-25 15:59 33.93964 -118.40543 96 ft 1 kts 173°
2026-04-25 15:59 33.93963 -118.40543 98 ft 0 kts 172°
2026-04-25 15:59 33.93949 -118.40541 98 ft 5 kts 173°
2026-04-25 16:00 33.93911 -118.40535 99 ft 6 kts 173°
2026-04-25 16:00 33.93896 -118.40533 100 ft 7 kts 173°
2026-04-25 16:00 33.93840 -118.40509 102 ft 5 kts 130°
2026-04-25 16:00 33.93832 -118.40455 103 ft 9 kts 84°
2026-04-25 16:01 33.93840 -118.40371 103 ft 10 kts 84°
2026-04-25 16:01 33.93849 -118.40286 104 ft 10 kts 81°
2026-04-25 16:01 33.93859 -118.40197 104 ft 12 kts 83°
2026-04-25 16:01 33.93870 -118.40086 103 ft 14 kts 83°
2026-04-25 16:02 33.93880 -118.39972 104 ft 14 kts 84°
2026-04-25 16:02 33.93893 -118.39847 104 ft 16 kts 84°
2026-04-25 16:02 33.93907 -118.39712 103 ft 16 kts 82°
2026-04-25 16:02 33.93922 -118.39573 103 ft 19 kts 83°
2026-04-25 16:03 33.93939 -118.39410 102 ft 20 kts 83°
2026-04-25 16:03 33.93956 -118.39240 101 ft 20 kts 83°
2026-04-25 16:03 33.93973 -118.39073 101 ft 20 kts 83°
2026-04-25 16:03 33.93991 -118.38906 101 ft 21 kts 83°
2026-04-25 16:04 33.94008 -118.38724 102 ft 22 kts 83°
2026-04-25 16:04 33.94027 -118.38546 102 ft 21 kts 83°
2026-04-25 16:04 33.94045 -118.38373 103 ft 20 kts 84°
2026-04-25 16:04 33.94062 -118.38206 103 ft 20 kts 83°
2026-04-25 16:05 33.94073 -118.38098 103 ft 0 kts 82°
2026-04-25 16:05 33.94075 -118.38078 102 ft 7 kts 83°
2026-04-25 16:06 33.94055 -118.38016 104 ft 7 kts 143°
2026-04-25 16:06 33.94005 -118.38011 109 ft 9 kts 202°
2026-04-25 16:06 33.93977 -118.38108 110 ft 22 kts 262°
2026-04-25 16:06 33.93928 -118.38574 110 ft 91 kts 263°
2026-04-25 16:07 33.93823 -118.39575 107 ft 148 kts 263°
2026-04-25 16:07 33.93778 -118.40013 118 ft 164 kts 262°
2026-04-25 16:07 33.93588 -118.42348 1309 ft 169 kts 264°
2026-04-25 16:07 33.93506 -118.43752 1827 ft 171 kts 264°
2026-04-25 16:08 33.93345 -118.45244 1955 ft 187 kts 248°
2026-04-25 16:08 33.92603 -118.46578 2111 ft 199 kts 223°
2026-04-25 16:08 33.91597 -118.47822 2242 ft 216 kts 226°
2026-04-25 16:08 33.90573 -118.49231 2353 ft 236 kts 228°
2026-04-25 16:09 33.89495 -118.50834 2572 ft 253 kts 231°
2026-04-25 16:09 33.88403 -118.52528 3122 ft 258 kts 230°
2026-04-25 16:09 33.87249 -118.54198 3688 ft 260 kts 221°
2026-04-25 16:09 33.85734 -118.55374 4275 ft 261 kts 201°
2026-04-25 16:10 33.83948 -118.55800 4832 ft 265 kts 180°
2026-04-25 16:10 33.82111 -118.55461 5344 ft 270 kts 168°
2026-04-25 16:10 33.80292 -118.54955 5869 ft 274 kts 169°
2026-04-25 16:10 33.78415 -118.54439 6405 ft 277 kts 169°
2026-04-25 16:11 33.76518 -118.53920 6911 ft 280 kts 169°
2026-04-25 16:11 33.74609 -118.53402 7457 ft 282 kts 170°
2026-04-25 16:11 33.72692 -118.52869 8000 ft 285 kts 166°
2026-04-25 16:11 33.70880 -118.51856 8527 ft 292 kts 147°
2026-04-25 16:12 33.69405 -118.50144 9053 ft 299 kts 127°
2026-04-25 16:12 33.68458 -118.47896 9549 ft 306 kts 111°
2026-04-25 16:12 33.67755 -118.45470 10032 ft 309 kts 111°
2026-04-25 16:12 33.67525 -118.44682 10183 ft 311 kts 112°
2026-04-25 16:13 33.66255 -118.40386 10385 ft 340 kts 112°
2026-04-25 16:13 33.65450 -118.37690 10514 ft 356 kts 112°
2026-04-25 16:13 33.64725 -118.34762 10630 ft 374 kts 103°
2026-04-25 16:13 33.64444 -118.31599 10853 ft 388 kts 91°
2026-04-25 16:14 33.64472 -118.28325 11290 ft 393 kts 91°
2026-04-25 16:14 33.64487 -118.25031 11764 ft 397 kts 91°
2026-04-25 16:14 33.64488 -118.21685 12221 ft 402 kts 91°
2026-04-25 16:14 33.64481 -118.18323 12692 ft 405 kts 92°
2026-04-25 16:15 33.64471 -118.14919 13104 ft 409 kts 92°
2026-04-25 16:15 33.64463 -118.11480 13562 ft 413 kts 92°
2026-04-25 16:15 33.64458 -118.08020 13979 ft 416 kts 92°
2026-04-25 16:15 33.64453 -118.04567 14380 ft 419 kts 92°
2026-04-25 16:16 33.64449 -118.01052 14828 ft 422 kts 92°
2026-04-25 16:16 33.64445 -117.97507 15264 ft 425 kts 92°
2026-04-25 16:16 33.64441 -117.93950 15698 ft 427 kts 92°
2026-04-25 16:16 33.64438 -117.90369 16137 ft 430 kts 92°
2026-04-25 16:17 33.64434 -117.86754 16569 ft 432 kts 92°
2026-04-25 16:17 33.64426 -117.83128 16997 ft 435 kts 92°
2026-04-25 16:17 33.64539 -117.79533 17421 ft 439 kts 85°
2026-04-25 16:17 33.65103 -117.75913 17834 ft 442 kts 78°
2026-04-25 16:18 33.65800 -117.72304 18256 ft 444 kts 78°
2026-04-25 16:18 33.66035 -117.71086 18382 ft 445 kts 78°
2026-04-25 16:18 33.67205 -117.65037 18952 ft 450 kts 78°
2026-04-25 16:18 33.67914 -117.61361 19289 ft 452 kts 78°
2026-04-25 16:19 33.68624 -117.57661 19622 ft 455 kts 78°
2026-04-25 16:19 33.69338 -117.53936 19947 ft 459 kts 78°
2026-04-25 16:19 33.70054 -117.50189 20295 ft 461 kts 78°
2026-04-25 16:20 33.71495 -117.42637 20876 ft 467 kts 78°
2026-04-25 16:20 33.72221 -117.38822 21158 ft 470 kts 78°
2026-04-25 16:20 33.73674 -117.31120 21750 ft 474 kts 78°
2026-04-25 16:21 33.74408 -117.27239 22029 ft 477 kts 78°
2026-04-25 16:21 33.74968 -117.23353 22294 ft 478 kts 86°
2026-04-25 16:21 33.75062 -117.19360 22553 ft 478 kts 94°
2026-04-25 16:21 33.74974 -117.15345 22862 ft 481 kts 94°
2026-04-25 16:22 33.74890 -117.11316 23140 ft 483 kts 94°
2026-04-25 16:22 33.74805 -117.07258 23421 ft 486 kts 94°
2026-04-25 16:22 33.74718 -117.03192 23688 ft 489 kts 94°
2026-04-25 16:22 33.74632 -116.99084 23920 ft 491 kts 94°
2026-04-25 16:23 33.74547 -116.94988 24164 ft 492 kts 94°
2026-04-25 16:23 33.74460 -116.90909 24401 ft 494 kts 94°
2026-04-25 16:23 33.74371 -116.86773 24628 ft 496 kts 94°
2026-04-25 16:23 33.74279 -116.82613 24857 ft 498 kts 94°
2026-04-25 16:24 33.74184 -116.78445 25096 ft 499 kts 94°
2026-04-25 16:24 33.74120 -116.75682 25247 ft 501 kts 94°
2026-04-25 16:24 33.74023 -116.71437 25419 ft 502 kts 94°
2026-04-25 16:24 33.73925 -116.67272 25647 ft 504 kts 94°
2026-04-25 16:25 33.73824 -116.63049 25857 ft 506 kts 94°
2026-04-25 16:25 33.73756 -116.60252 25945 ft 508 kts 94°
2026-04-25 16:25 33.73612 -116.54541 26214 ft 511 kts 94°
2026-04-25 16:25 33.73503 -116.50266 26443 ft 512 kts 94°
2026-04-25 16:26 33.73391 -116.45972 26679 ft 513 kts 95°
2026-04-25 16:26 33.73277 -116.41681 26895 ft 515 kts 95°
2026-04-25 16:26 33.73161 -116.37356 27080 ft 517 kts 95°
2026-04-25 16:26 33.73046 -116.33042 27281 ft 518 kts 95°
2026-04-25 16:27 33.72931 -116.28753 27480 ft 520 kts 94°
2026-04-25 16:27 33.72815 -116.24399 27677 ft 522 kts 94°
2026-04-25 16:27 33.72697 -116.20035 27957 ft 522 kts 94°
2026-04-25 16:27 33.72577 -116.15665 28259 ft 521 kts 95°
2026-04-25 16:28 33.72494 -116.11291 28561 ft 522 kts 90°
2026-04-25 16:28 33.72806 -116.06993 28835 ft 524 kts 82°
2026-04-25 16:28 33.73630 -116.02713 29103 ft 525 kts 72°
2026-04-25 16:28 33.74794 -115.98553 29360 ft 525 kts 71°
2026-04-25 16:29 33.75965 -115.94388 29633 ft 525 kts 71°
2026-04-25 16:29 33.77123 -115.90232 29905 ft 525 kts 71°
2026-04-25 16:29 33.78273 -115.86062 30120 ft 525 kts 72°
2026-04-25 16:29 33.79418 -115.81886 30322 ft 525 kts 72°
2026-04-25 16:30 33.80561 -115.77720 30520 ft 525 kts 71°
2026-04-25 16:30 33.81710 -115.73544 30717 ft 525 kts 71°
2026-04-25 16:30 33.82858 -115.69380 30923 ft 525 kts 71°
2026-04-25 16:30 33.84010 -115.65203 31126 ft 525 kts 71°
2026-04-25 16:31 33.85142 -115.61078 31323 ft 525 kts 71°
2026-04-25 16:31 33.86290 -115.56895 31525 ft 525 kts 71°
2026-04-25 16:31 33.87434 -115.52715 31723 ft 525 kts 71°
2026-04-25 16:31 33.88576 -115.48538 31943 ft 524 kts 72°
2026-04-25 16:32 33.89717 -115.44357 32100 ft 525 kts 72°
2026-04-25 16:32 33.90854 -115.40176 32275 ft 525 kts 71°
2026-04-25 16:32 33.91988 -115.36002 32449 ft 525 kts 71°
2026-04-25 16:32 33.93122 -115.31823 32647 ft 525 kts 71°
2026-04-25 16:33 33.94254 -115.27648 32798 ft 525 kts 71°
2026-04-25 16:33 33.95389 -115.23464 32962 ft 525 kts 71°
2026-04-25 16:33 33.96521 -115.19287 33143 ft 525 kts 71°
2026-04-25 16:33 33.97655 -115.15097 33319 ft 525 kts 72°
2026-04-25 16:34 33.98771 -115.10960 33499 ft 525 kts 72°
2026-04-25 16:34 33.99897 -115.06781 33651 ft 524 kts 71°
2026-04-25 16:34 34.01023 -115.02591 33793 ft 524 kts 72°
2026-04-25 16:34 34.02141 -114.98408 33910 ft 524 kts 72°
2026-04-25 16:35 34.03262 -114.94219 34023 ft 525 kts 71°
2026-04-25 16:35 34.04385 -114.90022 34140 ft 525 kts 71°
2026-04-25 16:35 34.05510 -114.85827 34259 ft 525 kts 71°
2026-04-25 16:35 34.06633 -114.81631 34372 ft 525 kts 71°
2026-04-25 16:36 34.07752 -114.77430 34491 ft 526 kts 71°
2026-04-25 16:36 34.09981 -114.69018 34761 ft 525 kts 71°
2026-04-25 16:37 34.12254 -114.60670 34805 ft 528 kts 70°
2026-04-25 16:37 34.14643 -114.52266 34806 ft 529 kts 70°
2026-04-25 16:38 34.17027 -114.43866 34810 ft 529 kts 70°
2026-04-25 16:38 34.19381 -114.35441 34798 ft 529 kts 70°
2026-04-25 16:39 34.21717 -114.26992 34801 ft 529 kts 70°
2026-04-25 16:39 34.24034 -114.18592 34804 ft 529 kts 70°
2026-04-25 16:40 34.26365 -114.10147 34811 ft 529 kts 70°
2026-04-25 16:40 34.28694 -114.01696 34811 ft 529 kts 70°
2026-04-25 16:41 34.31021 -113.93227 34812 ft 531 kts 70°
2026-04-25 16:41 34.34531 -113.80372 34809 ft 540 kts 70°
2026-04-25 16:42 34.36881 -113.71731 34813 ft 545 kts 70°
2026-04-25 16:42 34.39265 -113.62956 34813 ft 549 kts 70°
2026-04-25 16:43 34.41646 -113.54138 34810 ft 552 kts 70°
2026-04-25 16:43 34.44038 -113.45272 34811 ft 553 kts 70°
2026-04-25 16:44 34.46427 -113.36391 34814 ft 554 kts 70°
2026-04-25 16:44 34.48804 -113.27507 34819 ft 554 kts 70°
2026-04-25 16:45 34.51178 -113.18601 34817 ft 554 kts 70°
2026-04-25 16:45 34.53535 -113.09739 34816 ft 554 kts 70°
2026-04-25 16:46 34.55744 -113.00791 34817 ft 555 kts 78°
2026-04-25 16:46 34.56326 -112.94617 34817 ft 554 kts 91°
2026-04-25 16:47 34.55648 -112.82197 34831 ft 553 kts 96°
2026-04-25 16:47 34.55028 -112.72881 34872 ft 553 kts 96°
2026-04-25 16:48 34.54406 -112.63532 34914 ft 554 kts 96°
2026-04-25 16:48 34.53790 -112.54279 34944 ft 553 kts 96°
2026-04-25 16:49 34.53160 -112.44948 34970 ft 554 kts 96°
2026-04-25 16:49 34.52521 -112.35616 34961 ft 554 kts 97°
2026-04-25 16:50 34.51870 -112.26349 34938 ft 554 kts 97°
2026-04-25 16:50 34.51216 -112.17028 34899 ft 554 kts 97°
2026-04-25 16:51 34.50559 -112.07715 34861 ft 554 kts 97°
2026-04-25 16:51 34.50263 -112.01522 34827 ft 555 kts 89°
2026-04-25 16:52 34.51092 -111.93753 34841 ft 555 kts 77°
2026-04-25 16:52 34.51896 -111.89213 34854 ft 555 kts 77°
2026-04-25 16:52 34.53512 -111.80036 34872 ft 556 kts 77°
2026-04-25 16:53 34.55910 -111.66245 34880 ft 556 kts 77°
2026-04-25 16:54 34.57478 -111.57113 34879 ft 556 kts 77°
2026-04-25 16:54 34.59062 -111.47903 34877 ft 556 kts 77°
2026-04-25 16:55 34.60642 -111.38719 34883 ft 556 kts 77°
2026-04-25 16:55 34.62211 -111.29500 34875 ft 556 kts 77°
2026-04-25 16:56 34.63767 -111.20288 34877 ft 556 kts 77°
2026-04-25 16:56 34.65326 -111.11073 34881 ft 557 kts 77°
2026-04-25 16:57 34.66879 -111.01850 34875 ft 557 kts 77°
2026-04-25 16:57 34.68161 -110.94180 34864 ft 557 kts 77°
2026-04-25 16:58 34.69954 -110.83433 34873 ft 556 kts 77°
2026-04-25 16:58 34.71234 -110.75704 34884 ft 557 kts 77°
2026-04-25 16:59 34.72751 -110.66499 34891 ft 557 kts 77°
2026-04-25 16:59 34.74259 -110.57259 34886 ft 557 kts 77°
2026-04-25 17:00 34.75755 -110.48072 34870 ft 557 kts 77°
2026-04-25 17:00 34.77257 -110.38828 34850 ft 556 kts 77°
2026-04-25 17:01 34.78764 -110.29568 34850 ft 556 kts 77°
2026-04-25 17:01 34.80254 -110.20323 34851 ft 556 kts 77°
2026-04-25 17:02 34.81722 -110.11076 34845 ft 557 kts 77°
2026-04-25 17:02 34.83187 -110.01811 34846 ft 557 kts 77°
2026-04-25 17:03 34.84663 -109.92533 34845 ft 557 kts 77°
2026-04-25 17:03 34.86126 -109.83312 34841 ft 557 kts 77°
2026-04-25 17:04 34.87578 -109.74032 34837 ft 557 kts 77°
2026-04-25 17:04 34.89018 -109.64785 34834 ft 557 kts 77°
2026-04-25 17:05 34.90460 -109.55479 34835 ft 558 kts 78°
2026-04-25 17:05 34.92600 -109.41519 34833 ft 557 kts 78°
2026-04-25 17:06 34.94022 -109.32214 34847 ft 558 kts 78°
2026-04-25 17:06 34.95433 -109.22962 34910 ft 558 kts 78°
2026-04-25 17:07 34.96851 -109.13650 34972 ft 558 kts 77°
2026-04-25 17:07 34.98508 -109.04402 35039 ft 557 kts 74°
2026-04-25 17:08 35.00356 -108.95262 35063 ft 557 kts 73°
2026-04-25 17:08 35.02178 -108.86053 35063 ft 557 kts 75°
2026-04-25 17:09 35.03881 -108.76881 35015 ft 557 kts 75°
2026-04-25 17:09 35.05565 -108.67646 34933 ft 557 kts 75°
2026-04-25 17:10 35.07273 -108.58409 34851 ft 557 kts 75°
2026-04-25 17:10 35.08988 -108.49164 34770 ft 557 kts 75°
2026-04-25 17:11 35.10681 -108.39986 34768 ft 557 kts 75°
2026-04-25 17:11 35.12375 -108.30730 34809 ft 557 kts 75°
2026-04-25 17:12 35.14057 -108.21475 34891 ft 557 kts 75°
2026-04-25 17:12 35.15729 -108.12226 34971 ft 557 kts 75°
2026-04-25 17:13 35.17119 -108.04526 35034 ft 557 kts 75°
2026-04-25 17:13 35.19058 -107.93758 35067 ft 557 kts 75°
2026-04-25 17:14 35.20725 -107.84471 35066 ft 557 kts 75°
2026-04-25 17:14 35.22376 -107.75188 35009 ft 557 kts 76°
2026-04-25 17:15 35.24003 -107.65974 34939 ft 557 kts 76°
2026-04-25 17:15 35.25638 -107.56685 34869 ft 557 kts 76°
2026-04-25 17:16 35.27273 -107.47381 34804 ft 557 kts 76°
2026-04-25 17:16 35.28887 -107.38148 34802 ft 557 kts 76°
2026-04-25 17:17 35.30497 -107.28851 34810 ft 557 kts 76°
2026-04-25 17:17 35.32103 -107.19561 34816 ft 556 kts 76°
2026-04-25 17:18 35.33696 -107.10342 34860 ft 556 kts 76°
2026-04-25 17:18 35.35291 -107.01050 34886 ft 556 kts 76°
2026-04-25 17:19 35.36877 -106.91756 34914 ft 556 kts 76°
2026-04-25 17:19 35.38451 -106.82456 34922 ft 555 kts 76°
2026-04-25 17:20 35.40012 -106.73182 34893 ft 555 kts 76°
2026-04-25 17:20 35.41556 -106.63967 34861 ft 555 kts 76°
2026-04-25 17:21 35.43096 -106.54724 34797 ft 542 kts 76°
2026-04-25 17:21 35.44591 -106.45771 34804 ft 532 kts 76°
2026-04-25 17:22 35.45587 -106.39839 34845 ft 531 kts 76°
2026-04-25 17:22 35.47541 -106.28012 34920 ft 530 kts 76°
2026-04-25 17:23 35.48978 -106.19182 34968 ft 530 kts 76°
2026-04-25 17:23 35.50419 -106.10308 35006 ft 530 kts 76°
2026-04-25 17:24 35.51875 -106.01427 34999 ft 530 kts 76°
2026-04-25 17:24 35.53315 -105.92545 34966 ft 529 kts 77°
2026-04-25 17:25 35.54740 -105.83667 34910 ft 529 kts 77°
2026-04-25 17:25 35.56153 -105.74788 34853 ft 529 kts 77°
2026-04-25 17:26 35.57558 -105.65968 34789 ft 528 kts 77°
2026-04-25 17:26 35.58965 -105.57106 34786 ft 528 kts 77°
2026-04-25 17:27 35.60365 -105.48244 34833 ft 527 kts 77°
2026-04-25 17:27 35.61297 -105.42320 34876 ft 526 kts 77°
2026-04-25 17:28 35.63130 -105.30559 34956 ft 526 kts 77°
2026-04-25 17:28 35.64488 -105.21773 34996 ft 526 kts 77°
2026-04-25 17:29 35.65853 -105.12911 34995 ft 527 kts 78°
2026-04-25 17:29 35.67039 -105.03986 34998 ft 528 kts 80°
2026-04-25 17:30 35.68053 -104.95062 34928 ft 529 kts 81°
2026-04-25 17:30 35.69076 -104.86071 34857 ft 531 kts 80°
2026-04-25 17:31 35.70158 -104.77057 34770 ft 532 kts 80°
2026-04-25 17:31 35.71260 -104.68034 34714 ft 533 kts 80°
2026-04-25 17:32 35.72157 -104.60528 34722 ft 533 kts 80°
2026-04-25 17:32 35.73387 -104.50009 34722 ft 534 kts 80°
2026-04-25 17:33 35.74270 -104.42428 34712 ft 534 kts 80°
2026-04-25 17:33 35.75316 -104.33433 34722 ft 533 kts 80°
2026-04-25 17:34 35.76363 -104.24357 34727 ft 533 kts 80°
2026-04-25 17:34 35.77398 -104.15306 34732 ft 533 kts 81°
2026-04-25 17:35 35.78430 -104.06231 34732 ft 534 kts 80°
2026-04-25 17:35 35.79454 -103.97209 34738 ft 534 kts 81°
2026-04-25 17:36 35.80470 -103.88108 34744 ft 535 kts 81°
2026-04-25 17:36 35.81485 -103.79002 34747 ft 536 kts 81°
2026-04-25 17:37 35.82497 -103.69888 34749 ft 536 kts 81°
2026-04-25 17:37 35.83496 -103.60774 34750 ft 536 kts 81°
2026-04-25 17:38 35.84323 -103.53186 34750 ft 537 kts 81°
2026-04-25 17:38 35.85481 -103.42527 34749 ft 537 kts 81°
2026-04-25 17:39 35.86470 -103.33426 34750 ft 538 kts 81°
2026-04-25 17:39 35.87449 -103.24259 34750 ft 538 kts 81°
2026-04-25 17:40 35.88411 -103.15083 34755 ft 538 kts 81°
2026-04-25 17:40 35.89367 -103.05973 34751 ft 538 kts 81°
2026-04-25 17:41 35.90334 -102.96809 34756 ft 539 kts 81°
2026-04-25 17:41 35.91290 -102.87631 34810 ft 539 kts 81°
2026-04-25 17:42 35.92228 -102.78449 34863 ft 538 kts 81°
2026-04-25 17:42 35.93159 -102.69272 34907 ft 538 kts 81°
2026-04-25 17:43 35.94085 -102.60103 34941 ft 538 kts 81°
2026-04-25 17:43 35.95010 -102.50938 34943 ft 537 kts 81°
2026-04-25 17:44 35.95932 -102.41781 34927 ft 537 kts 81°
2026-04-25 17:44 35.96844 -102.32664 34891 ft 538 kts 81°
2026-04-25 17:45 35.97448 -102.26515 34864 ft 537 kts 82°
2026-04-25 17:45 35.98626 -102.14298 34887 ft 538 kts 82°
2026-04-25 17:46 35.99507 -102.05114 34900 ft 538 kts 82°
2026-04-25 17:46 36.00685 -101.95989 34895 ft 536 kts 75°
2026-04-25 17:47 36.02220 -101.87040 34868 ft 536 kts 75°
2026-04-25 17:47 36.03764 -101.77997 34835 ft 536 kts 75°
2026-04-25 17:48 36.06051 -101.64449 34779 ft 536 kts 75°
2026-04-25 17:49 36.07567 -101.55460 34781 ft 536 kts 76°
2026-04-25 17:49 36.09082 -101.46408 34783 ft 536 kts 76°
2026-04-25 17:50 36.10576 -101.37419 34778 ft 536 kts 76°
2026-04-25 17:50 36.12064 -101.28391 34785 ft 536 kts 76°
2026-04-25 17:51 36.13558 -101.19330 34782 ft 536 kts 76°
2026-04-25 17:51 36.15044 -101.10270 34780 ft 536 kts 76°
2026-04-25 17:52 36.16510 -101.01265 34785 ft 536 kts 76°
2026-04-25 17:52 36.17984 -100.92198 34801 ft 536 kts 76°
2026-04-25 17:53 36.19454 -100.83136 34819 ft 536 kts 76°
2026-04-25 17:53 36.20917 -100.74052 34828 ft 536 kts 76°
2026-04-25 17:54 36.22357 -100.65027 34830 ft 536 kts 76°
2026-04-25 17:54 36.23795 -100.55940 34818 ft 536 kts 76°
2026-04-25 17:55 36.25229 -100.46842 34788 ft 536 kts 76°
2026-04-25 17:55 36.26660 -100.37812 34767 ft 536 kts 76°
2026-04-25 17:56 36.28090 -100.28718 34757 ft 537 kts 76°
2026-04-25 17:56 36.29502 -100.19636 34762 ft 536 kts 76°
2026-04-25 17:57 36.30911 -100.10542 34784 ft 536 kts 76°
2026-04-25 17:57 36.32319 -100.01444 34797 ft 536 kts 76°